Location: Devore Heights
(34.2372°N, 117.4156°W)
Time: 19:57:52
(UTC+00:00)

S-56A Canister/Altair - Pass Details

Date: 14 September 2024
Orbit: 636 x 2487 km, 38.9° (Epoch: 14 October)

Event Time Altitude Azimuth Distance (km) Brightness Sun altitude
Rises 23:45:49 0° 191° (S) 2,925 10.9 26.0°
Reaches altitude 10° 23:49:13 10° 162° (SSE) 2,112 9.8 25.3°
Maximum altitude 23:51:25 13° 134° (SE) 2,009 9.5 24.9°
Drops below altitude 10° 23:53:50 10° 106° (ESE) 2,357 9.6 24.4°
Sets 23:58:06 0° 81° (E) 3,613 10.4 23.6°
